Location: Bieg
(49.3499°N, 10.3835°E)
Time: 22:23:22
(UTC+00:00)

Cosmos 841 Rocket - Pass Details

Date: 23 May 2024
Orbit: 744 x 770 km, 74.0° (Epoch: 25 June)

Event Time Altitude Azimuth Distance (km) Brightness Sun altitude
Rises 00:24:33 0° 337° (NNW) 3,231 7.5 -18.3°
Reaches altitude 10° 00:26:56 10° 340° (NNW) 2,305 6.7 -18.2°
Maximum altitude 00:32:10 71° 65° (ENE) 813 3.7 -17.9°
Enters shadow 00:36:29 15° 148° (SSE) 1,960 5.3 -17.7°
